User: anonymous
Location: Brno
(49.2000°N, 16.6330°E)
Time: 13:22:00
(UTC+02:00)
Language:

Cosmos 332 Rocket - Orbit

View from above orbital plane
View from above orbital plane
View from above satellite
View from above satellite

Ground track
Ground track

The orbit data is extracted from the following two-line orbital elements,

1 04370U 70028B   14202.41290160  .00000123  00000-0  32419-4 0  6911
2 04370 074.0423 313.5324 0014854 144.1999 253.7379 14.59127316857078
Epoch (UTC): 21 July 2014 09:54:34
Eccentricity: 0.0014854
inclination: 74.0423°
perigee height: 685 km
apogee height: 706 km
right ascension of ascending node: 313.5324°
argument of perigee: 144.1999°
revolutions per day: 14.59127316
mean anomaly at epoch: 253.7379°
orbit number at epoch: 85707

The dashed part of the orbit path shows where the satellite is in the earth's shadow,  

DLR